QPF
0.00 0.00 0.00 0.00 0.00 0.00 0.00 0.00 0.00 0.00 0.00 0.00 0.00 0.00 0.00 0.00 0.00 0.00 0.00 0.00 0.00 0.00 0.00 0.00 0.00 0.00 0.00 0.00 0.00 0.00 0.00 0.00 0.00 0.00 0.00 0.00 0.00 0.00 0.00 0.00 0.00 0.00 0.00 0.00 0.00
0.00 0.00 0.00 0.00 0.00 0.00 0.00 0.00 0.00 0.00 0.00 0.00 0.00 0.00 0.00 0.00 0.00 0.00 0.00 0.00 0.00 0.00 0.00 0.00 0.00 0.00 0.00 0.00 0.00 0.00 0.00 0.00 0.00 0.00 0.00 0.00 0.00 0.00 0.00 0.00 0.00 0.00 0.00 0.00 0.00
0.00 0.00 0.00 0.00 0.00 0.00 0.00 0.00 0.00 0.00 0.00 0.00 0.00 0.00 0.00 0.00 0.00 0.00 0.00 0.00 0.00 0.00 0.00 0.00 0.00 0.00 0.00 0.00 0.00 0.00 0.00 0.00 0.00 0.00 0.00 0.00 0.00 0.00 0.00 0.00 0.00 0.00 0.00 0.00 0.00
0.00 0.00 0.00 0.00 0.00 0.00 0.00 0.00 0.00 0.00 0.00 0.00 0.00 0.00 0.00 0.00 0.00 0.00 0.00 0.00 0.00 0.00 0.00 0.00 0.00 0.00 0.00 0.00 0.00 0.00 0.00 0.00 0.00 0.00 0.00 0.00 0.00 0.00 0.00 0.00 0.00 0.00 0.00 0.00 0.00
0.00 0.00 0.00 0.00 0.00 0.00 0.00 0.00 0.00 0.00 0.00 0.00 0.00 0.00 0.00 0.00 0.00 0.00 0.00 0.00 0.00 0.00 0.00 0.00 0.00 0.00 0.00 0.00 0.00 0.00 0.00 0.00 0.00 0.00 0.00 0.00 0.00 0.00 0.00 0.00 0.00 0.00 0.00 0.00 0.00
0.00 0.00 0.00 0.00 0.00 0.00 0.00 0.00 0.00 0.00 0.00 0.00 0.00 0.00 0.00 0.00 0.00 0.00 0.00 0.00 0.00 0.00 0.00 0.00 0.00 0.00 0.00 0.00 0.00 0.00 0.00 0.00 0.00 0.00 0.00 0.00 0.00 0.00 0.00 0.00 0.00 0.00 0.00 0.00 0.00
0.00 0.00 0.00 0.00 0.00 0.00 0.00 0.00 0.00 0.00 0.00 0.00 0.00 0.00 0.00 0.00 0.00 0.00 0.00 0.00 0.00 0.00 0.00 0.00 0.00 0.00 0.00 0.00 0.00 0.00 0.00 0.00 0.00 0.00 0.00 0.00 0.00 0.00 0.00 0.00 0.00 0.00 0.00 0.00 0.00
0.00 0.00 0.00 0.00 0.00 0.00 0.00 0.00 0.00 0.00 0.00 0.00 0.00 0.00 0.00 0.00 0.00 0.00 0.00 0.00 0.00 0.00 0.00 0.00 0.00 0.00 0.00 0.00 0.00 0.00 0.00 0.00 0.00 0.00 0.00 0.00 0.00 0.00 0.00 0.00 0.00 0.00 0.00 0.00 0.00
0.00 0.00 0.00 0.00 0.00 0.00 0.00 0.00 0.00 0.00 0.00 0.00 0.00 0.00 0.00 0.00 0.00 0.00 0.00 0.00 0.00 0.00 0.00 0.00 0.00 0.00 0.00 0.00 0.00 0.00 0.00 0.00 0.00 0.00 0.00 0.00 0.00 0.00 0.00 0.00 0.00 0.00 0.00 0.00 0.00
0.00 0.00 0.00 0.00 0.00 0.00 0.00 0.00 0.00 0.00 0.00 0.00 0.00 0.00 0.00 0.00 0.00 0.00 0.00 0.00 0.00 0.00 0.00 0.00 0.00 0.00 0.00 0.00 0.00 0.00 0.00 0.00 0.00 0.00 0.00 0.00 0.00 0.00 0.00 0.00 0.00 0.00 0.00 0.00 0.00
0.00 0.00 0.00 0.00 0.00 0.00 0.00 0.00 0.00 0.00 0.00 0.00 0.00 0.00 0.00 0.00 0.00 0.00 0.00 0.00 0.00 0.00 0.00 0.00 0.00 0.00 0.00 0.00 0.00 0.00 0.00 0.00 0.00 0.00 0.00 0.00 0.00 0.00 0.00 0.00 0.00 0.00 0.00 0.00 0.00
0.00 0.00 0.00 0.00 0.00 0.00 0.00 0.00 0.00 0.00 0.00 0.00 0.00 0.00 0.00 0.00 0.00 0.00 0.00 0.00 0.00 0.00 0.00 0.00 0.00 0.00 0.00 0.00 0.00 0.00 0.00 0.00 0.00 0.00 0.00 0.00 0.00 0.00 0.00 0.00 0.00 0.00 0.00 0.00 0.00
0.00 0.00 0.00 0.00 0.00 0.00 0.00 0.00 0.00 0.00 0.00 0.00 0.00 0.00 0.00 0.00 0.00 0.00 0.00 0.00 0.00 0.00 0.00 0.00 0.00 0.00 0.00 0.00 0.00 0.00 0.00 0.00 0.00 0.00 0.00 0.00 0.00 0.00 0.00 0.00 0.00 0.00 0.00 0.00 0.00
0.00 0.00 0.00 0.00 0.00 0.00 0.00 0.00 0.00 0.00 0.00 0.00 0.00 0.00 0.00 0.00 0.00 0.00 0.00 0.00 0.00 0.00 0.00 0.00 0.00 0.00 0.00 0.00 0.00 0.00 0.00 0.00 0.00 0.00 0.00 0.00 0.00 0.00 0.00 0.00 0.00 0.00 0.00 0.00 0.00
0.00 0.00 0.00 0.00 0.00 0.00 0.00 0.00 0.00 0.00 0.00 0.00 0.00 0.00 0.00 0.00 0.00 0.00 0.00 0.00 0.00 0.00 0.00 0.00 0.00 0.00 0.00 0.00 0.00 0.00 0.00 0.00 0.00 0.00 0.00 0.00 0.00 0.00 0.00 0.00 0.00 0.00 0.00 0.00 0.00
0.00 0.00 0.00 0.00 0.00 0.00 0.00 0.00 0.00 0.00 0.00 0.00 0.00 0.00 0.00 0.00 0.00 0.00 0.00 0.00 0.00 0.00 0.00 0.00 0.00 0.00 0.00 0.00 0.00 0.00 0.00 0.00 0.00 0.00 0.00 0.00 0.00 0.00 0.00 0.00 0.01 0.00 0.00 0.00 0.00
0.00 0.00 0.00 0.00 0.00 0.00 0.00 0.00 0.00 0.00 0.00 0.00 0.00 0.00 0.00 0.00 0.00 0.00 0.00 0.00 0.00 0.00 0.00 0.00 0.00 0.00 0.00 0.00 0.00 0.00 0.00 0.00 0.00 0.00 0.01 0.01 0.01 0.01 0.01 0.01 0.00 0.00 0.00 0.00 0.00
0.00 0.00 0.00 0.00 0.00 0.00 0.00 0.00 0.00 0.00 0.00 0.00 0.00 0.00 0.00 0.00 0.00 0.00 0.00 0.00 0.00 0.00 0.00 0.00 0.00 0.00 0.00 0.00 0.00 0.00 0.00 0.00 0.00 0.00 0.00 0.00 0.00 0.00 0.00 0.00 0.00 0.00 0.00 0.00 0.00
0.00 0.00 0.00 0.00 0.00 0.00 0.00 0.00 0.00 0.00 0.00 0.00 0.00 0.00 0.00 0.00 0.00 0.00 0.00 0.00 0.00 0.00 0.00 0.00 0.00 0.00 0.00 0.00 0.00 0.00 0.00 0.00 0.02 0.01 0.00 0.00 0.00 0.01 0.00 0.00 0.00 0.00 0.00 0.00 0.00
0.00 0.00 0.00 0.00 0.00 0.00 0.00 0.00 0.00 0.00 0.00 0.00 0.00 0.00 0.00 0.00 0.00 0.00 0.00 0.00 0.00 0.00 0.00 0.00 0.00 0.00 0.00 0.00 0.00 0.00 0.00 0.01 0.06 0.06 0.02 0.00 0.02 0.01 0.01 0.00 0.00 0.00 0.00 0.00 0.00
0.00 0.00 0.00 0.00 0.00 0.00 0.00 0.00 0.00 0.00 0.00 0.00 0.00 0.00 0.00 0.00 0.00 0.00 0.00 0.00 0.00 0.00 0.00 0.00 0.00 0.00 0.00 0.00 0.00 0.00 0.01 0.01 0.03 0.03 0.03 0.01 0.01 0.01 0.01 0.00 0.00 0.00 0.00 0.00 0.00
0.00 0.00 0.00 0.00 0.00 0.00 0.00 0.00 0.00 0.00 0.00 0.00 0.00 0.00 0.00 0.00 0.00 0.00 0.00 0.00 0.00 0.00 0.00 0.00 0.00 0.00 0.00 0.00 0.00 0.00 0.00 0.02 0.05 0.05 0.06 0.05 0.01 0.00 0.00 0.00 0.00 0.00 0.00 0.00 0.00
0.00 0.00 0.00 0.00 0.00 0.00 0.00 0.00 0.00 0.00 0.00 0.00 0.00 0.00 0.00 0.00 0.00 0.00 0.00 0.00 0.00 0.00 0.00 0.00 0.00 0.00 0.00 0.00 0.00 0.01 0.00 0.01 0.05 0.05 0.03 0.05 0.01 0.00 0.00 0.00 0.00 0.00 0.00 0.00 0.00
0.00 0.00 0.00 0.00 0.00 0.00 0.00 0.00 0.00 0.00 0.00 0.00 0.00 0.00 0.00 0.00 0.00 0.00 0.00 0.00 0.00 0.00 0.00 0.00 0.00 0.00 0.00 0.00 0.00 0.00 0.00 0.00 0.02 0.02 0.02 0.02 0.00 0.00 0.00 0.00 0.00 0.00 0.00 0.00 0.00
0.00 0.00 0.00 0.00 0.00 0.00 0.00 0.00 0.00 0.00 0.00 0.00 0.00 0.00 0.00 0.00 0.00 0.00 0.00 0.00 0.00 0.00 0.00 0.00 0.00 0.01 0.01 0.00 0.00 0.00 0.00 0.00 0.01 0.00 0.02 0.00 0.00 0.00 0.00 0.00 0.00 0.00 0.00 0.00 0.00
0.00 0.00 0.00 0.00 0.00 0.00 0.00 0.00 0.00 0.00 0.00 0.00 0.00 0.00 0.00 0.00 0.00 0.00 0.00 0.00 0.00 0.00 0.00 0.01 0.01 0.01 0.00 0.00 0.00 0.00 0.00 0.00 0.00 0.01 0.01 0.00 0.00 0.00 0.00 0.00 0.00 0.00 0.00 0.00 0.00
0.00 0.00 0.00 0.00 0.00 0.00 0.00 0.00 0.00 0.00 0.00 0.00 0.00 0.00 0.00 0.00 0.00 0.00 0.00 0.00 0.00 0.00 0.00 0.01 0.01 0.02 0.01 0.00 0.00 0.01 0.01 0.02 0.01 0.01 0.00 0.00 0.00 0.00 0.00 0.00 0.00 0.00 0.00 0.00 0.00
MSLP
1017.21 1016.86 1016.54 1016.31 1016.03 1015.75 1015.51 1015.23 1014.96 1014.73 1014.48 1014.20 1013.97 1013.72 1013.42 1012.95 1012.01 1011.63 1010.83 1011.41 1010.98 1010.64 1010.40 1008.97 1007.24 1006.68 1006.33 1005.78 1005.24 1005.29 1004.60 1003.19 1002.01 1000.92 1000.08 999.50 999.42 999.89 1000.30 1000.78 1001.03 1001.58 1001.46 1000.99 1001.10
1017.22 1016.87 1016.60 1016.31 1016.08 1015.80 1015.50 1015.23 1014.92 1014.61 1014.27 1013.96 1013.79 1013.54 1013.30 1013.02 1011.62 1010.63 1011.36 1011.11 1010.81 1010.52 1009.59 1007.67 1006.67 1006.45 1005.67 1005.18 1005.00 1004.77 1004.19 1003.00 1001.91 1001.93 1001.83 1001.36 1001.49 1001.03 1001.37 1001.48 1001.57 1001.68 1001.74 1001.59 1001.56
1017.27 1016.90 1016.62 1016.40 1016.12 1015.83 1015.54 1015.22 1014.89 1014.55 1014.27 1013.94 1013.77 1013.52 1013.28 1012.95 1011.13 1010.58 1011.08 1010.81 1010.46 1010.19 1009.46 1007.76 1007.01 1006.34 1005.46 1004.71 1004.71 1004.55 1004.32 1003.65 1002.76 1002.92 1003.13 1002.70 1002.52 1002.60 1002.47 1002.38 1002.35 1002.01 1001.85 1001.50 1001.43
1017.38 1016.99 1016.67 1016.37 1016.10 1015.81 1015.51 1015.20 1014.83 1014.48 1014.23 1014.03 1013.83 1013.55 1013.19 1012.32 1010.36 1010.52 1010.82 1010.52 1010.17 1009.98 1008.99 1007.17 1006.37 1005.83 1005.22 1004.81 1004.33 1004.83 1004.68 1004.39 1003.52 1003.82 1003.79 1003.65 1003.28 1003.21 1003.21 1002.93 1002.76 1002.54 1002.17 1001.99 1002.11
1017.38 1017.04 1016.69 1016.39 1016.08 1015.76 1015.45 1015.13 1014.81 1014.50 1014.17 1014.00 1013.82 1013.60 1012.55 1010.84 1009.82 1010.46 1010.62 1010.14 1009.57 1008.54 1007.98 1007.30 1006.73 1006.60 1005.89 1005.25 1005.11 1004.77 1004.44 1004.14 1003.77 1004.04 1004.17 1004.19 1003.94 1003.59 1003.27 1003.29 1003.06 1002.80 1002.47 1002.28 1002.26
1017.57 1017.15 1016.70 1016.32 1015.95 1015.61 1015.31 1015.06 1014.73 1014.33 1014.10 1013.95 1013.76 1013.63 1012.58 1010.04 1009.28 1009.40 1009.60 1008.92 1008.42 1008.09 1007.73 1007.62 1007.56 1007.38 1006.81 1005.81 1005.66 1005.11 1004.75 1004.61 1004.35 1004.04 1003.94 1003.86 1003.59 1003.47 1003.11 1003.05 1002.65 1002.46 1002.34 1002.32 1002.21
1017.76 1017.31 1016.81 1016.33 1015.90 1015.50 1015.16 1014.87 1014.56 1014.17 1013.84 1013.82 1013.74 1013.11 1010.54 1009.73 1009.10 1008.96 1008.77 1008.58 1008.67 1008.46 1008.11 1007.89 1008.03 1007.86 1007.22 1006.41 1005.50 1005.26 1004.98 1004.40 1003.74 1003.02 1002.65 1003.03 1003.22 1002.98 1002.65 1002.08 1001.88 1001.72 1001.76 1001.92 1001.87
1017.87 1017.36 1016.87 1016.30 1015.79 1015.34 1014.98 1014.65 1014.30 1013.83 1013.53 1013.43 1013.48 1012.44 1009.92 1009.29 1009.03 1008.74 1008.44 1008.01 1008.06 1008.19 1008.27 1008.30 1008.19 1008.07 1007.36 1006.55 1005.79 1005.28 1004.40 1003.21 1001.94 1001.28 1001.35 1002.44 1002.05 1001.90 1001.79 1001.49 1001.06 1001.06 1001.56 1001.63 1001.59
1017.93 1017.41 1016.88 1016.28 1015.75 1015.29 1014.89 1014.57 1014.12 1013.67 1013.33 1013.11 1012.69 1011.16 1009.00 1009.53 1009.02 1008.69 1008.66 1008.60 1008.31 1008.08 1007.74 1007.86 1008.13 1007.53 1006.95 1006.04 1004.99 1003.80 1002.82 1002.01 1001.30 1001.17 1001.33 1001.41 1000.82 1001.00 1000.98 1001.02 1000.90 1000.74 1001.04 1001.16 1001.11
1018.01 1017.38 1016.80 1016.16 1015.70 1015.30 1014.84 1014.51 1013.91 1013.58 1012.73 1012.06 1011.02 1010.03 1008.60 1008.32 1008.53 1008.88 1008.43 1008.59 1008.32 1007.98 1007.43 1006.83 1006.68 1006.30 1005.58 1004.81 1004.18 1003.83 1003.62 1003.19 1002.52 1002.43 1001.97 1001.70 1001.23 1001.04 1000.75 1000.33 1000.23 1000.06 999.97 1000.10 1000.31
1018.10 1017.39 1016.63 1016.00 1015.62 1015.35 1014.37 1014.00 1013.77 1012.73 1011.39 1009.81 1009.09 1008.48 1008.23 1008.31 1008.62 1008.12 1008.21 1008.24 1007.50 1007.38 1006.72 1005.94 1005.88 1005.34 1004.97 1004.79 1004.59 1004.41 1004.25 1003.67 1003.23 1002.82 1002.47 1001.78 1001.18 1000.75 1000.32 999.78 999.53 999.43 999.20 999.09 999.24
1018.10 1017.36 1016.58 1015.84 1015.29 1015.20 1015.07 1012.30 1011.62 1011.22 1009.96 1008.79 1008.88 1008.79 1008.66 1008.58 1008.00 1007.39 1008.24 1008.06 1007.77 1007.21 1006.55 1005.87 1004.96 1004.51 1004.86 1005.09 1005.03 1004.90 1004.50 1003.79 1003.08 1002.68 1002.22 1001.51 1001.13 1001.03 1000.20 999.42 999.06 998.79 998.42 998.16 998.28
1018.10 1017.35 1016.60 1015.79 1015.07 1014.04 1012.37 1011.69 1010.93 1010.58 1009.78 1008.05 1008.14 1008.02 1007.88 1008.37 1007.75 1007.65 1008.21 1008.22 1007.86 1007.26 1006.57 1006.26 1005.59 1005.19 1005.35 1005.27 1005.05 1004.83 1004.59 1004.08 1003.59 1002.96 1002.23 1001.60 1000.59 999.93 999.53 999.44 998.12 997.40 997.27 997.24 997.44
1018.05 1017.27 1016.58 1015.78 1015.09 1011.67 1011.04 1011.04 1010.50 1010.74 1009.41 1007.64 1007.57 1007.57 1007.78 1007.65 1007.41 1007.64 1008.25 1008.63 1008.11 1007.56 1007.14 1006.55 1005.50 1005.38 1005.57 1005.49 1005.35 1004.77 1005.03 1004.81 1004.43 1003.87 1002.59 1002.15 1000.47 999.77 998.75 998.06 998.16 998.71 996.62 996.56 996.88
1017.90 1017.08 1016.32 1016.38 1014.30 1011.39 1011.38 1010.87 1010.77 1010.89 1008.62 1007.29 1006.78 1007.54 1007.34 1007.22 1006.94 1007.26 1008.06 1007.97 1007.78 1007.56 1007.70 1006.69 1006.12 1005.82 1005.50 1005.48 1006.01 1005.79 1005.69 1005.48 1004.97 1004.19 1003.35 1002.29 1001.33 999.21 998.26 997.51 996.84 996.00 996.54 997.12 997.43
1017.57 1016.80 1016.23 1014.16 1013.76 1011.23 1010.98 1011.18 1011.24 1010.17 1007.42 1006.67 1006.59 1006.63 1006.44 1005.94 1006.06 1006.51 1007.05 1007.23 1007.45 1007.17 1007.07 1006.44 1005.70 1005.54 1005.08 1005.78 1006.21 1005.93 1005.29 1004.97 1004.56 1003.77 1002.71 1002.04 1002.25 999.99 999.39 999.55 999.11 998.90 997.54 997.27 997.39
1016.95 1016.25 1016.04 1013.68 1011.71 1011.22 1011.22 1010.86 1010.12 1008.16 1006.77 1006.42 1006.45 1006.53 1006.33 1006.16 1006.35 1006.67 1007.11 1007.23 1007.09 1006.80 1006.87 1006.53 1006.04 1005.33 1005.43 1005.79 1005.84 1005.85 1005.75 1005.22 1005.08 1004.25 1003.64 1004.06 1004.15 1002.77 1001.33 999.79 998.63 998.34 997.61 997.46 997.68
1016.24 1015.67 1013.94 1012.88 1011.67 1011.57 1011.42 1010.59 1009.11 1006.68 1006.88 1007.27 1007.17 1006.99 1006.23 1005.96 1006.79 1007.00 1006.83 1006.66 1006.72 1006.81 1006.99 1006.82 1006.01 1006.05 1006.01 1006.61 1006.29 1006.02 1006.37 1006.14 1005.22 1005.16 1004.02 1003.59 1002.77 1001.09 999.69 999.70 998.58 998.53 998.53 998.39 998.02
1015.78 1014.09 1013.02 1011.74 1011.86 1011.95 1011.41 1009.63 1007.99 1008.07 1008.33 1008.29 1007.95 1006.76 1005.95 1006.15 1006.61 1006.83 1006.76 1006.80 1006.97 1007.93 1008.60 1008.09 1007.24 1006.94 1007.26 1006.48 1006.96 1006.24 1006.48 1006.16 1006.38 1006.24 1005.10 1003.99 1001.72 1001.15 1001.20 1000.61 999.27 999.30 999.22 998.85 998.67
1016.30 1013.10 1011.08 1011.53 1011.87 1011.85 1011.07 1009.29 1008.24 1008.56 1009.15 1009.07 1008.64 1007.97 1007.40 1007.46 1007.58 1007.34 1007.37 1007.20 1007.62 1008.24 1009.08 1009.36 1008.18 1008.23 1007.48 1006.86 1006.62 1006.62 1006.25 1006.46 1007.38 1007.09 1005.42 1003.40 1002.73 1003.20 1003.51 1002.92 1002.07 1001.04 1000.54 999.82 999.63
1016.14 1012.39 1011.47 1011.36 1011.52 1011.35 1010.02 1008.51 1008.80 1008.89 1009.68 1009.81 1009.28 1009.14 1008.94 1008.67 1008.61 1008.32 1008.04 1007.76 1007.91 1008.68 1009.53 1010.04 1009.98 1008.18 1008.32 1007.62 1006.46 1006.03 1005.84 1006.96 1007.05 1007.92 1006.93 1005.28 1004.15 1004.02 1004.12 1004.27 1003.30 1002.54 1002.30 1001.71 1000.91
1015.15 1011.87 1011.11 1011.13 1011.07 1009.68 1008.92 1009.80 1010.71 1009.89 1009.74 1009.92 1009.96 1009.94 1009.67 1009.54 1009.46 1009.36 1008.80 1008.81 1009.06 1009.75 1010.14 1010.64 1010.57 1009.58 1008.99 1008.06 1006.93 1006.59 1006.36 1006.82 1007.42 1007.60 1007.03 1006.64 1004.51 1003.48 1003.03 1003.49 1004.37 1004.47 1004.13 1003.40 1003.01
1015.95 1012.29 1010.90 1011.02 1010.29 1009.77 1009.74 1009.58 1009.70 1009.84 1010.06 1010.11 1010.23 1010.38 1010.29 1010.14 1010.17 1009.69 1009.41 1009.34 1009.36 1009.57 1010.07 1010.88 1011.36 1010.84 1009.03 1007.31 1007.03 1007.06 1007.09 1007.43 1008.06 1008.40 1007.64 1006.74 1004.04 1003.28 1002.73 1002.79 1002.83 1003.08 1003.41 1003.61 1003.21
1016.65 1012.46 1011.01 1010.86 1010.87 1011.17 1010.81 1010.60 1009.68 1009.58 1010.05 1010.62 1010.87 1010.93 1010.76 1010.47 1010.18 1009.42 1009.27 1009.26 1009.20 1009.21 1010.11 1011.19 1011.82 1012.00 1011.22 1009.91 1009.36 1008.39 1008.09 1007.93 1007.71 1007.64 1007.02 1005.64 1004.23 1003.48 1003.14 1002.74 1002.59 1003.29 1003.50 1003.47 1003.31
1016.30 1013.90 1013.79 1012.42 1011.73 1012.10 1011.95 1011.38 1010.66 1010.02 1010.13 1010.61 1010.94 1011.11 1010.87 1010.82 1010.71 1010.01 1009.66 1009.27 1009.61 1009.49 1009.69 1010.87 1011.63 1011.98 1011.42 1010.61 1009.93 1008.86 1007.67 1007.15 1006.97 1006.64 1005.92 1004.70 1004.56 1004.72 1004.21 1003.93 1003.82 1003.47 1003.26 1003.26 1002.90
1017.48 1016.61 1015.47 1014.31 1013.09 1012.40 1011.86 1011.14 1010.66 1010.45 1011.02 1011.13 1011.39 1011.62 1011.67 1011.67 1011.64 1010.58 1010.53 1010.37 1009.83 1009.69 1010.07 1010.65 1011.49 1011.93 1011.21 1010.60 1009.60 1007.65 1006.63 1005.45 1004.87 1004.71 1004.70 1005.08 1004.52 1003.33 1003.18 1003.41 1003.77 1003.63 1003.37 1003.15 1003.20
1018.82 1018.14 1017.03 1014.91 1013.61 1012.29 1011.32 1011.18 1011.31 1011.51 1011.68 1011.77 1011.94 1012.13 1012.19 1012.07 1011.75 1011.49 1011.10 1010.17 1009.85 1009.84 1010.23 1011.29 1012.29 1012.47 1010.44 1010.50 1009.08 1007.10 1005.34 1005.26 1004.90 1004.32 1004.63 1003.89 1003.60 1003.81 1003.51 1003.42 1003.59 1003.59 1003.37 1003.61 1003.78
Thickness
5706 5708 5710 5712 5714 5716 5717 5719 5721 5722 5723 5725 5727 5729 5731 5734 5741 5745 5744 5741 5743 5744 5745 5754 5765 5767 5768 5763 5772 5768 5740 5740 5758 5771 5779 5806 5794 5798 5802 5797 5801 5797 5803 5817 5813
5706 5708 5710 5712 5713 5715 5717 5718 5720 5722 5724 5725 5726 5728 5729 5731 5742 5745 5740 5741 5743 5744 5747 5754 5753 5755 5750 5754 5756 5746 5734 5746 5775 5764 5758 5774 5766 5773 5772 5778 5781 5786 5799 5807 5805
5705 5708 5709 5710 5711 5713 5715 5717 5719 5720 5722 5724 5724 5726 5727 5729 5739 5737 5739 5740 5741 5742 5745 5754 5753 5748 5741 5751 5744 5740 5724 5743 5753 5749 5753 5755 5754 5757 5750 5747 5762 5765 5778 5790 5792
5705 5706 5708 5709 5711 5712 5714 5715 5718 5720 5721 5721 5722 5723 5725 5731 5724 5738 5737 5738 5739 5738 5741 5747 5745 5736 5733 5728 5743 5720 5730 5730 5738 5736 5732 5734 5745 5733 5736 5744 5758 5762 5770 5777 5775
5704 5706 5707 5709 5710 5712 5713 5715 5717 5718 5720 5720 5720 5720 5729 5732 5730 5736 5733 5735 5737 5742 5736 5731 5726 5721 5715 5723 5723 5714 5721 5727 5730 5724 5720 5721 5719 5723 5724 5738 5744 5748 5755 5759 5763
5702 5704 5707 5709 5710 5712 5714 5715 5716 5719 5719 5718 5718 5718 5722 5722 5744 5741 5738 5741 5740 5737 5732 5728 5717 5718 5709 5714 5706 5714 5712 5709 5711 5709 5710 5701 5707 5714 5724 5727 5728 5732 5737 5744 5749
5701 5703 5705 5708 5710 5712 5713 5715 5716 5719 5720 5717 5716 5718 5732 5722 5742 5742 5741 5735 5734 5729 5719 5724 5718 5706 5706 5699 5715 5707 5691 5699 5705 5709 5705 5704 5687 5694 5716 5724 5718 5721 5726 5733 5739
5699 5702 5705 5707 5710 5712 5713 5715 5716 5719 5719 5718 5715 5719 5721 5740 5739 5738 5739 5735 5738 5733 5723 5721 5716 5702 5698 5705 5700 5688 5693 5680 5714 5720 5717 5692 5667 5697 5712 5712 5713 5710 5713 5718 5724
5698 5701 5704 5707 5709 5711 5713 5713 5715 5717 5718 5717 5719 5723 5720 5736 5728 5734 5732 5718 5721 5722 5724 5721 5709 5697 5696 5684 5682 5695 5683 5696 5702 5723 5710 5697 5680 5698 5706 5700 5699 5702 5705 5708 5713
5696 5700 5703 5707 5708 5710 5712 5712 5714 5714 5720 5720 5725 5715 5729 5720 5726 5724 5730 5722 5711 5710 5706 5705 5695 5687 5691 5686 5665 5670 5669 5673 5669 5684 5686 5673 5670 5684 5693 5693 5691 5697 5703 5704 5705
5694 5698 5703 5706 5707 5708 5712 5716 5712 5709 5718 5719 5721 5719 5721 5727 5728 5722 5723 5713 5714 5704 5688 5703 5685 5677 5684 5686 5681 5673 5662 5655 5662 5672 5662 5660 5664 5667 5682 5688 5683 5687 5695 5701 5703
5692 5696 5701 5705 5708 5707 5705 5719 5717 5718 5706 5728 5721 5717 5719 5719 5705 5717 5717 5696 5691 5681 5694 5690 5681 5699 5694 5683 5672 5662 5650 5648 5658 5665 5663 5657 5649 5658 5672 5678 5681 5682 5691 5701 5704
5690 5694 5698 5703 5707 5713 5721 5717 5725 5724 5702 5719 5721 5715 5715 5711 5701 5699 5702 5692 5682 5678 5683 5670 5681 5690 5677 5669 5660 5657 5644 5640 5637 5648 5654 5649 5645 5657 5669 5667 5683 5694 5702 5707 5706
5687 5692 5695 5700 5701 5728 5720 5723 5724 5718 5688 5705 5708 5712 5713 5711 5694 5711 5701 5685 5677 5668 5672 5670 5686 5675 5663 5653 5654 5639 5649 5638 5629 5623 5616 5645 5620 5650 5670 5678 5676 5665 5702 5707 5707
5685 5690 5694 5692 5705 5717 5715 5720 5718 5705 5668 5708 5709 5722 5712 5698 5700 5692 5700 5686 5667 5667 5663 5659 5664 5659 5652 5651 5645 5631 5638 5627 5625 5621 5623 5633 5628 5654 5680 5682 5695 5705 5697 5696 5698
5685 5688 5691 5703 5703 5719 5718 5713 5703 5675 5667 5699 5711 5700 5698 5704 5700 5696 5686 5689 5680 5667 5667 5664 5678 5666 5661 5652 5641 5640 5634 5632 5631 5633 5622 5640 5619 5644 5653 5649 5653 5661 5685 5690 5693
5686 5689 5688 5700 5706 5715 5712 5701 5674 5672 5711 5698 5693 5695 5691 5686 5683 5680 5667 5662 5653 5643 5641 5655 5656 5666 5660 5638 5640 5632 5616 5595 5589 5605 5608 5604 5595 5599 5625 5649 5669 5666 5680 5686 5687
5688 5690 5699 5702 5709 5707 5700 5683 5662 5706 5696 5699 5691 5687 5680 5687 5675 5670 5665 5656 5667 5658 5640 5627 5628 5644 5647 5625 5617 5618 5608 5589 5578 5588 5612 5627 5606 5632 5667 5658 5675 5673 5671 5674 5679
5688 5696 5698 5707 5703 5699 5683 5670 5682 5683 5685 5675 5677 5677 5683 5681 5671 5664 5659 5652 5655 5645 5616 5613 5620 5640 5630 5633 5618 5611 5594 5614 5585 5594 5593 5611 5640 5643 5643 5639 5658 5658 5660 5662 5666
5676 5696 5706 5704 5698 5688 5673 5671 5686 5688 5677 5670 5653 5667 5656 5659 5652 5654 5647 5655 5640 5640 5630 5611 5598 5618 5622 5626 5620 5605 5615 5587 5579 5559 5577 5618 5616 5594 5597 5602 5615 5633 5638 5649 5652
5672 5690 5697 5699 5695 5677 5667 5685 5682 5685 5671 5656 5653 5646 5647 5643 5641 5639 5636 5645 5640 5628 5619 5604 5592 5609 5607 5601 5601 5605 5599 5591 5591 5572 5563 5578 5601 5606 5594 5586 5609 5619 5619 5622 5630
5671 5673 5695 5694 5668 5684 5681 5670 5653 5665 5668 5658 5653 5645 5639 5637 5627 5624 5624 5624 5623 5612 5596 5595 5582 5578 5587 5601 5606 5601 5596 5591 5567 5566 5576 5562 5575 5616 5614 5608 5589 5588 5596 5604 5607
5657 5674 5693 5683 5660 5666 5672 5672 5670 5660 5653 5648 5640 5639 5638 5626 5603 5617 5617 5624 5619 5608 5592 5587 5564 5553 5574 5601 5597 5583 5587 5582 5570 5559 5548 5551 5576 5614 5613 5611 5611 5600 5594 5590 5596
5649 5659 5671 5673 5670 5655 5651 5649 5655 5662 5650 5643 5633 5630 5623 5618 5621 5614 5612 5614 5613 5607 5592 5576 5550 5547 5539 5552 5556 5554 5560 5563 5561 5542 5549 5564 5575 5593 5597 5598 5601 5586 5587 5587 5589
5648 5648 5645 5638 5646 5638 5639 5639 5637 5639 5647 5638 5624 5620 5616 5602 5600 5602 5607 5605 5601 5599 5591 5565 5541 5542 5542 5545 5542 5543 5551 5557 5552 5556 5549 5570 5570 5562 5568 5574 5574 5579 5579 5577 5583
5621 5618 5626 5626 5637 5636 5633 5636 5636 5636 5627 5618 5610 5607 5604 5590 5586 5587 5587 5582 5580 5585 5573 5566 5535 5536 5532 5541 5540 5547 5557 5567 5572 5573 5569 5556 5556 5583 5581 5574 5565 5565 5568 5570 5569
5609 5608 5608 5619 5625 5633 5637 5634 5628 5624 5620 5615 5605 5595 5588 5587 5589 5585 5582 5583 5577 5567 5558 5537 5523 5521 5535 5536 5539 5543 5560 5557 5560 5566 5553 5561 5570 5569 5567 5564 5557 5554 5557 5555 5556